Regional Weather Roundup
Issued by NWS

Home | Current Version | Previous Version | Graphics & Text | Print | Product List | Glossary On
Versions: 1 2 3 4 5 6 7 8 9 10 11 12 13 14 15 16 17 18 19 20 21 22 23 24 25 26 27 28 29 30 31 32 33 34 35 36 37 38 39 40 41 42 43 44 45 46 47 48 49 50
172
ASUS43 KFSD 191402
RWRSD

WEATHER ROUNDUP FOR SOUTH DAKOTA
NATIONAL WEATHER SERVICE SIOUX FALLS SD
800 AM CST SUN FEB 19 2017

NOTE: "FAIR" INDICATES FEW OR NO CLOUDS BELOW 12,000 FEET WITH NO
SIGNIFICANT WEATHER AND/OR OBSTRUCTIONS TO VISIBILITY.


SDZ001>005-009-010-012>017-191500-
NORTHWEST AND NORTH CENTRAL SOUTH DAKOTA

CITY           SKY/WX    TMP DP  RH WIND       PRES   REMARKS
BUFFALO          N/A     39  32  76 S10       29.45S
FAITH            N/A     37  33  85 S18       29.53S
MOBRIDGE       CLOUDY    40  32  73 SE6       29.57F
$$

SDZ012>016-024>037-041>051-057-063-072>074-191500-
SOUTHWEST AND SOUTH CENTRAL SOUTH DAKOTA

CITY           SKY/WX    TMP DP  RH WIND       PRES   REMARKS
RAPID CTY ARPT PTCLDY    35  28  75 CALM      29.56S
PIERRE         CLOUDY    39  33  79 SE12      29.60R
CUSTER         CLOUDY    44  27  51 W9        29.60F
ELLSWORTH AFB  PTCLDY    38  31  76 VRB3      29.55R
PHILIP         PTCLDY    39  33  79 CALM      29.57S
PINE RIDGE     CLEAR     37  32  82 CALM      29.61R
SPEARFISH      FAIR      52  28  40 CALM      29.54F
WINNER         FAIR      48  36  63 S12       29.64R
$$

SDZ004>011-016>023-039-040-191500-
NORTHEAST SOUTH DAKOTA

CITY           SKY/WX    TMP DP  RH WIND       PRES   REMARKS
ABERDEEN       CLOUDY    41  33  73 S8        29.70F
WATERTOWN      CLOUDY    42  35  76 SE14      29.75F
BROOKINGS      PTCLDY    40  34  79 SE16      29.78S
SISSETON         N/A     35  35 100 S6        29.77S
$$

SDZ017-020-022-023-036>040-048>070-191500-
SOUTHEAST SOUTH DAKOTA

CITY           SKY/WX    TMP DP  RH WIND       PRES   REMARKS
SIOUX FALLS    CLOUDY    41  35  79 SE8       29.80S
HURON          PTCLDY    40  35  83 SE12      29.70F
CHAMBERLAIN    CLOUDY    40  36  86 SE10      29.66R
MITCHELL       CLOUDY    39  34  82 SE14      29.71F
YANKTON        CLEAR     37  34  87 E8        29.76F
$$

ABBREVIATIONS USED IN REMARKS
   TC - TEMPERATURE IN CELSIUS
  WCI - WIND CHILL INDEX
   HX - HEAT INDEX
  VSB - VISIBILITY





USA.gov is the U.S. government's official web portal to all federal, state and local government web resources and services.